Date String (YYYY-MM-DD hh:mm:ss) UTC,Instrument flags,absolute air pressure of the measurement (hPa),sample flow rate (lpm),inlet stack bypass flow (lpm),air temperature of the measurement (°C),ambient temperature measured by the external sensor (°C),aerosol sample conditioner tube jacket temperature (°C),OPC LED temperature (°C),internal box temperature (°C),relative humidity of the measurement (%),span deviation,mass concentration of particles derived from Lorenz-Mie calculation of OPC scattering (μg/m³),mass concentration of particles derived from Lorenz-Mie calculation of OPC scattering (μg/m³),mass concentration of particles derived from Lorenz-Mie calculation of OPC scattering (μg/m³)
DateTimeUTC,F1_M11,P_M11,Q1_M11,Q2_M11,T1_M11,T2_M11,T3_M11,T4_M11,T5_M11,U1_M11,ZSPAN_M11,X0_M11,X2_M11,X1_M11
2024-05-04 07:00:00,SystemResetWarning,0833.3,4.98,000.00,022.9,022.1,000.0,031.5,024.5,019.1,0000.0,0004.36,0002.07,0001.74
2024-05-04 07:01:00,SystemResetWarning,0833.4,4.99,000.00,022.8,022.1,000.0,031.5,024.5,019.0,0000.0,0004.09,0002.06,0001.72
2024-05-04 07:02:00,SystemResetWarning,0833.0,5.01,000.00,022.8,022.1,000.0,031.5,024.4,019.1,0000.0,0003.65,0002.06,0001.71
2024-05-04 07:03:00,SystemResetWarning,0832.9,5.01,000.00,022.8,022.1,000.0,031.4,024.4,019.2,0000.0,0004.00,0002.07,0001.69
2024-05-04 07:04:00,SystemResetWarning,0832.9,4.99,000.00,022.8,022.0,000.0,031.4,024.3,019.2,0000.0,0004.01,0002.02,0001.68
2024-05-04 07:05:00,SystemResetWarning,0833.1,4.99,000.00,022.7,022.0,000.0,031.4,024.3,019.3,0000.0,0004.02,0002.01,0001.66
2024-05-04 07:06:00,SystemResetWarning,0833.4,5.01,000.00,022.7,021.9,000.0,031.3,024.3,019.3,0000.0,0004.18,0001.99,0001.65
2024-05-04 07:07:00,SystemResetWarning,0833.3,5.01,000.00,022.7,021.9,000.0,031.3,024.2,019.4,0000.0,0004.52,0001.97,0001.64
2024-05-04 07:08:00,SystemResetWarning,0833.3,4.99,000.00,022.6,021.9,000.0,031.3,024.2,019.6,0000.0,0004.67,0001.94,0001.62
2024-05-04 07:09:00,SystemResetWarning,0833.4,4.99,000.00,022.6,021.8,000.0,031.2,024.2,019.7,0000.0,0005.10,0001.92,0001.61
2024-05-04 07:10:00,SystemResetWarning,0833.4,5.01,000.00,022.6,021.8,000.0,031.2,024.2,019.6,0000.0,0005.04,0001.88,0001.60
2024-05-04 07:11:00,SystemResetWarning,0833.4,5.00,000.00,022.5,021.8,000.0,031.2,024.1,019.5,0000.0,0004.92,0001.87,0001.60
2024-05-04 07:12:00,SystemResetWarning,0833.4,5.00,000.00,022.5,021.8,000.0,031.2,024.1,019.6,0000.0,0004.86,0001.84,0001.59
2024-05-04 07:13:00,SystemResetWarning,0832.9,5.00,000.00,022.5,021.7,000.0,031.1,024.0,019.7,0000.0,0004.92,0001.86,0001.58
2024-05-04 07:14:00,SystemResetWarning,0833.0,4.99,000.00,022.5,021.7,000.0,031.1,024.0,019.8,0000.0,0004.74,0001.85,0001.57
2024-05-04 07:15:00,SystemResetWarning,0832.8,5.00,000.00,022.4,021.7,000.0,031.1,024.0,019.8,0000.0,0004.44,0001.84,0001.56
2024-05-04 07:16:00,SystemResetWarning,0832.9,4.99,000.00,022.4,021.7,000.0,031.0,024.0,019.9,0000.0,0004.54,0001.88,0001.56
2024-05-04 07:17:00,SystemResetWarning,0833.0,5.00,000.00,022.4,021.6,000.0,031.0,023.9,019.9,0000.0,0004.61,0001.89,0001.57
2024-05-04 07:18:00,SystemResetWarning,0833.1,5.01,000.00,022.3,021.6,000.0,031.0,023.9,019.9,0000.0,0004.04,0001.89,0001.57
2024-05-04 07:19:00,SystemResetWarning,0832.9,5.00,000.00,022.3,021.6,000.0,031.0,023.9,020.0,0000.0,0003.82,0001.86,0001.57
2024-05-04 07:20:00,SystemResetWarning,0832.8,5.00,000.00,022.3,021.6,000.0,030.9,023.9,020.0,0000.0,0003.43,0001.86,0001.59
2024-05-04 07:21:00,SystemResetWarning,0832.8,4.99,000.00,022.3,021.5,000.0,030.9,023.8,020.1,0000.0,0002.43,0001.86,0001.59
2024-05-04 07:22:00,SystemResetWarning,0832.7,4.99,000.00,022.2,021.5,000.0,030.9,023.8,020.3,0000.0,0002.93,0001.86,0001.59
2024-05-04 07:23:00,SystemResetWarning,0832.8,5.00,000.00,022.2,021.5,000.0,030.9,023.8,020.3,0000.0,0004.17,0001.87,0001.59
2024-05-04 07:24:00,SystemResetWarning,0832.7,5.00,000.00,022.2,021.5,000.0,030.8,023.8,020.4,0000.0,0004.65,0001.87,0001.60
2024-05-04 07:25:00,SystemResetWarning,0832.9,4.99,000.00,022.2,021.5,000.0,030.8,023.8,020.4,0000.0,0006.55,0001.84,0001.62
2024-05-04 07:26:00,SystemResetWarning,0832.7,5.00,000.00,022.2,021.5,000.0,030.8,023.8,020.4,0000.0,0007.27,0001.86,0001.63
2024-05-04 07:27:00,SystemResetWarning,0832.8,4.99,000.00,022.1,021.4,000.0,030.8,023.7,020.4,0000.0,0007.21,0001.84,0001.63
2024-05-04 07:28:00,SystemResetWarning,0832.8,4.99,000.00,022.1,021.4,000.0,030.7,023.7,020.4,0000.0,0007.10,0001.82,0001.63
2024-05-04 07:29:00,SystemResetWarning,0832.8,5.00,000.00,022.1,021.4,000.0,030.7,023.7,020.4,0000.0,0007.09,0001.82,0001.63
2024-05-04 07:30:00,SystemResetWarning,0832.8,5.01,000.00,022.1,021.4,000.0,030.7,023.6,020.2,0000.0,0007.19,0001.85,0001.64
2024-05-04 07:31:00,SystemResetWarning,0832.8,5.01,000.00,022.0,021.3,000.0,030.7,023.6,020.1,0000.0,0007.29,0001.87,0001.64
2024-05-04 07:32:00,SystemResetWarning,0832.9,4.99,000.00,022.0,021.3,000.0,030.6,023.6,020.1,0000.0,0007.29,0001.86,0001.64
2024-05-04 07:33:00,SystemResetWarning,0832.7,4.99,000.00,022.0,021.3,000.0,030.6,023.6,019.9,0000.0,0007.13,0001.87,0001.65
2024-05-04 07:34:00,SystemResetWarning,0832.7,5.00,000.00,022.0,021.3,000.0,030.6,023.5,019.8,0000.0,0005.95,0001.88,0001.67
2024-05-04 07:35:00,SystemResetWarning,0832.7,5.01,000.00,021.9,021.2,000.0,030.6,023.5,019.9,0000.0,0005.85,0001.90,0001.67
2024-05-04 07:36:00,SystemResetWarning,0832.7,5.01,000.00,021.9,021.2,000.0,030.5,023.5,020.0,0000.0,0004.28,0001.92,0001.67
2024-05-04 07:37:00,SystemResetWarning,0832.7,4.99,000.00,021.9,021.2,000.0,030.5,023.5,020.1,0000.0,0003.13,0001.92,0001.67
2024-05-04 07:38:00,SystemResetWarning,0832.7,4.99,000.00,021.9,021.2,000.0,030.5,023.5,020.1,0000.0,0003.96,0001.93,0001.68
2024-05-04 07:39:00,SystemResetWarning,0832.6,5.01,000.00,021.9,021.2,000.0,030.5,023.4,020.0,0000.0,0003.99,0001.94,0001.68
2024-05-04 07:40:00,SystemResetWarning,0832.6,5.02,000.00,021.9,021.2,000.0,030.5,023.4,020.1,0000.0,0004.06,0001.98,0001.69
2024-05-04 07:41:00,SystemResetWarning,0832.6,4.99,000.00,021.8,021.1,000.0,030.4,023.4,020.2,0000.0,0004.00,0001.98,0001.70
2024-05-04 07:42:00,SystemResetWarning,0832.7,4.99,000.00,021.8,021.1,000.0,030.4,023.4,020.2,0000.0,0003.98,0001.97,0001.70
2024-05-04 07:43:00,SystemResetWarning,0832.6,5.01,000.00,021.8,021.1,000.0,030.4,023.4,020.3,0000.0,0004.64,0001.97,0001.72
2024-05-04 07:44:00,SystemResetWarning,0832.6,5.01,000.00,021.8,021.1,000.0,030.4,023.3,020.2,0000.0,0005.17,0002.01,0001.74
2024-05-04 07:45:00,SystemResetWarning,0832.6,5.00,000.00,021.7,021.0,000.0,030.3,023.3,020.3,0000.0,0004.98,0002.02,0001.74
2024-05-04 07:46:00,SystemResetWarning,0832.7,4.99,000.00,021.7,021.0,000.0,030.3,023.2,020.4,0000.0,0004.63,0002.04,0001.76
2024-05-04 07:47:00,SystemResetWarning,0832.6,5.00,000.00,021.7,021.0,000.0,030.3,023.2,020.5,0000.0,0004.60,0002.05,0001.78
2024-05-04 07:48:00,SystemResetWarning,0832.5,5.00,000.00,021.7,021.0,000.0,030.3,023.2,020.6,0000.0,0004.48,0002.04,0001.79
2024-05-04 07:49:00,SystemResetWarning,0832.5,4.99,000.00,021.6,021.0,000.0,030.2,023.2,020.7,0000.0,0003.78,0002.05,0001.80
2024-05-04 07:50:00,SystemResetWarning,0832.5,5.00,000.00,021.6,020.9,000.0,030.2,023.2,020.7,0000.0,0003.77,0002.05,0001.81
2024-05-04 07:51:00,SystemResetWarning,0832.5,5.00,000.00,021.6,020.9,000.0,030.2,023.2,020.7,0000.0,0003.72,0002.02,0001.80
2024-05-04 07:52:00,SystemResetWarning,0832.6,5.00,000.00,021.6,020.9,000.0,030.2,023.1,020.7,0000.0,0003.73,0002.01,0001.79
2024-05-04 07:53:00,SystemResetWarning,0832.5,5.00,000.00,021.6,020.9,000.0,030.2,023.1,020.6,0000.0,0004.07,0002.01,0001.78
2024-05-04 07:54:00,SystemResetWarning,0832.6,5.00,000.00,021.5,020.9,000.0,030.1,023.1,020.6,0000.0,0003.44,0002.02,0001.77
2024-05-04 07:55:00,SystemResetWarning,0832.5,5.00,000.00,021.5,020.8,000.0,030.1,023.1,020.5,0000.0,0002.89,0001.99,0001.75
2024-05-04 07:56:00,SystemResetWarning,0832.6,5.00,000.00,021.5,020.8,000.0,030.1,023.1,020.4,0000.0,0002.85,0001.97,0001.74
2024-05-04 07:57:00,SystemResetWarning,0832.5,5.00,000.00,021.5,020.8,000.0,030.1,023.1,020.4,0000.0,0003.38,0001.95,0001.72
2024-05-04 07:58:00,SystemResetWarning,0832.5,5.01,000.00,021.5,020.8,000.0,030.1,023.0,020.5,0000.0,0003.36,0001.93,0001.71
2024-05-04 07:59:00,SystemResetWarning,0832.5,5.01,000.00,021.4,020.8,000.0,030.0,023.0,020.6,0000.0,0003.41,0001.94,0001.70
